GW0203 Weather Reports


time (UTC)temp
C
wind
direction
speed
KPH
gust
KPH
rain 1hr
cm
rain 24hr
cm
rain mn
cm
humidity
%
barometer
mb
20260507030840 12 176 3.2 4.8 0.00 0.33 0.33 99 1006.7
20260507025337 12 34 3.2 8.0 0.00 0.33 0.33 99 1006.4
20260507023834 12 233 0.0 6.4 0.00 0.33 0.33 99 1006.7
20260507022329 12 257 3.2 8.0 0.00 0.33 0.33 99 1006.8
20260507020825 12 99 0.0 6.4 0.00 0.33 0.33 99 1006.5
20260507015322 12 305 4.8 17.7 0.00 0.33 0.33 99 1006.7
20260507013817 12 63 0.0 14.5 0.00 0.33 0.33 99 1007.0
20260507012314 12 214 4.8 11.3 0.00 0.33 0.33 99 1006.9
20260507010814 12 90 8.0 11.3 0.00 0.33 0.33 99 1007.1
20260507005309 12 270 8.0 14.5 0.00 0.33 0.33 99 1007.4
20260507003806 12 263 4.8 16.1 0.00 0.33 0.33 99 1007.0
20260507002306 12 221 3.2 17.7 0.00 0.33 0.33 99 1007.1
20260507000802 12 233 8.0 25.7 0.00 0.33 0.33 99 1007.1
20260506235256 12 199 12.9 22.5 0.00 0.33 0.33 99 1007.3
20260506233754 12 209 8.0 16.1 0.00 0.33 0.33 99 1007.1
20260506232253 12 289 4.8 9.7 0.00 0.33 0.33 99 1007.1
20260506230751 11 194 4.8 12.9 0.05 0.33 0.33 99 1007.1
20260506225248 12 4 3.2 9.7 0.00 0.33 0.33 99 1007.0
20260506223743 11 23 3.2 20.9 0.05 0.30 0.30 99 1007.0
20260506222238 11 219 4.8 6.4 0.18 0.28 0.28 99 1006.9
20260506220737 11 101 4.8 14.5 0.23 0.23 0.23 99 1007.2
20260506215236 11 222 4.8 16.1 0.18 0.18 0.18 99 1007.5
20260506213734 11 270 4.8 14.5 0.00 0.15 0.15 99 1007.7
20260506212230 12 293 3.2 14.5 0.05 0.13 0.13 99 1007.8
20260506210725 12 274 8.0 11.3 0.00 0.10 0.10 99 1008.0
20260506205220 12 197 0.0 16.1 0.05 0.10 0.10 99 1008.1
20260506203718 12 206 4.8 11.3 0.05 0.10 0.10 98 1008.4
20260506202214 12 315 3.2 12.9 0.00 0.08 0.08 97 1008.1
20260506200711 12 265 6.4 22.5 0.00 0.08 0.08 96 1008.5
20260506195207 13 206 11.3 19.3 0.05 0.08 0.08 96 1008.5
20260506193704 13 90 3.2 11.3 0.23 0.08 0.08 95 1008.5
20260506192200 14 10 4.8 16.1 0.00 0.03 0.03 91 1008.4
20260506190656 15 166 14.5 24.1 0.00 0.03 0.03 87 1008.9
20260506185152 15 270 12.9 35.4 0.00 0.03 0.03 87 1008.8
20260506183649 15 225 9.7 20.9 0.00 0.03 0.03 87 1009.0
20260506182145 15 206 6.4 20.9 0.00 0.03 0.03 86 1009.1
20260506180643 15 188 16.1 24.1 0.00 0.03 0.03 86 1009.1
20260506175138 15 180 4.8 19.3 0.00 0.03 0.03 86 1009.5
20260506173637 15 201 19.3 20.9 0.00 0.03 0.03 85 1009.8
20260506172133 16 56 3.2 22.5 0.00 0.03 0.03 84 1010.0
20260506170631 17 232 8.0 11.3 0.00 0.03 0.03 81 1009.7
20260506165127 17 228 6.4 19.3 0.00 0.03 0.03 80 1010.0
20260506163623 16 323 6.4 20.9 0.00 0.03 0.03 84 1010.2
20260506162122 16 315 3.2 17.7 0.00 0.03 0.03 85 1010.5
20260506160619 16 86 3.2 20.9 0.00 0.03 0.03 83 1010.8
20260506155116 17 120 4.8 20.9 0.00 0.03 0.03 81 1010.9
20260506152329 16 250 9.7 24.1 0.00 0.03 0.03 84 1011.0
20260506150826 16 222 19.3 29.0 0.00 0.03 0.03 83 1011.2
20260506145322 16 207 6.4 24.1 0.00 0.03 0.03 85 1011.2
20260506143821 16 196 3.2 16.1 0.00 0.03 0.03 84 1011.0
20260506142319 16 206 4.8 14.5 0.00 0.03 0.03 86 1011.2
20260506140818 16 199 11.3 19.3 0.00 0.03 0.03 85 1010.8
20260506135314 15 341 6.4 19.3 0.00 0.03 0.03 86 1010.8
20260506133810 15 187 8.0 27.4 0.00 0.03 0.03 87 1011.1
20260506132307 16 178 6.4 16.1 0.00 0.03 0.03 86 1011.1
20260506130803 15 213 17.7 17.7 0.00 0.03 0.03 86 1011.2
20260506125304 15 290 0.0 16.1 0.00 0.03 0.03 88 1011.2
20260506123800 15 252 14.5 19.3 0.05 0.03 0.03 88 1011.1
20260506122258 15 215 14.5 22.5 0.00 0.00 0.00 90 1011.4
20260506120756 14 210 4.8 20.9 0.00 0.00 0.00 92 1011.4
20260506115255 13 243 16.1 30.6 0.00 0.00 0.00 93 1011.4
20260506113754 13 204 11.3 29.0 0.00 0.00 0.00 94 1011.5
20260506112251 13 277 4.8 30.6 0.00 0.00 0.00 94 1011.7
20260506110749 12 211 12.9 19.3 0.00 0.00 0.00 96 1011.5
20260506105245 12 251 6.4 17.7 0.00 0.00 0.00 95 1011.6
20260506103743 12 219 4.8 20.9 0.00 0.00 0.00 96 1011.4
20260506102242 12 166 0.0 17.7 0.00 0.00 0.00 96 1011.5
20260506100739 12 227 12.9 24.1 0.00 0.00 0.00 97 1011.2
20260506095237 12 200 17.7 22.5 0.00 0.00 0.00 97 1011.1
20260506093737 12 223 8.0 17.7 0.00 0.00 0.00 97 1011.2
20260506092235 12 204 16.1 22.5 0.00 0.00 0.00 97 1011.3
20260506090733 12 252 6.4 27.4 0.00 0.00 0.00 97 1011.3
20260506085228 12 227 9.7 17.7 0.00 0.00 0.00 97 1011.5
20260506083724 12 221 8.0 14.5 0.00 0.00 0.00 97 1011.6
20260506082220 12 197 12.9 12.9 0.00 0.00 0.00 97 1011.3
20260506080719 12 190 8.0 14.5 0.00 0.00 0.00 97 1011.6
20260506072211 12 206 4.8 9.7 0.00 0.00 0.00 95 1011.5
20260506070708 12 223 8.0 12.9 0.00 0.00 0.00 95 1011.5
20260506062200 12 297 3.2 14.5 0.00 0.00 0.00 94 1011.4
20260506060658 13 28 6.4 19.3 0.00 0.00 0.00 93 1011.5
20260506050649 13 183 4.8 20.9 0.00 0.00 0.00 90 1012.1
20260506043642 13 237 14.5 27.4 0.00 0.00 0.00 90 1011.9
20260506042142 13 214 12.9 30.6 0.00 0.00 0.00 90 1012.2
20260506040641 13 188 4.8 25.7 0.00 0.00 0.00 91 1012.1
20260506035137 12 221 8.0 20.9 0.00 0.03 0.03 92 1012.0
20260506033634 12 213 3.2 6.4 0.00 0.03 0.03 92 1011.9
20260506032131 12 253 11.3 19.3 0.00 0.03 0.03 91 1011.9